Flag for U.S.A. Weather past 2 weeks in St. Croix Falls, Wisconsin, U.S.A.

Now
71 °F

Low clouds.


Feels Like: 65 °F
Forecast: 67 / 81 °F
Wind: 5 mph from Northwest

Location: L O Simenstad Municipal Airport

Current Time: Aug 22, 2014 at 12:41:46 PM

Latest Report: Aug 22, 2014 at 12:15 PM


Visibility: 10 mi

Pressure: 30.00 "Hg

Humidity: 96%

Dew point: 69 °F

Location of St. Croix FallsLocation

Historic Weather in St. Croix Falls — Graph

°F

St. Croix Falls temperature yesterday

Maximum temperature yesterday: 75 °F (at 6:15 PM)
Minimum temperature yesterday: 66 °F (at 1:15 AM)
Average temperature yesterday: 71 °F

Past Weeks' High & Low Weather Summary

 TemperatureHumidityPressure
High83 °F (Aug 7, 3:55 PM)100% (Aug 8, 3:35 AM)30.20 "Hg (Aug 8, 3:35 AM)
Low53 °F (Aug 14, 5:55 AM)30% (Aug 8, 3:35 PM)29.65 "Hg (Aug 18, 8:15 PM)
Average70 °F82%29.98 "Hg
* Reported Aug 7 11:15 AM — Aug 22 11:15 AM, St. Croix Falls, Weather by CustomWeather, © 2014

Note: Actual official high and low records may vary slightly from our data, if they occured in-between our weather recording intervals... More about our weather records

Advertising

St. Croix Falls weather history for previous 24 hours

 ConditionsComfort  
Time TempWeatherWind HumidityBarometerVisibility
11:15 AM
Aug 22
70 °FLow clouds.5 mph98%29.99 "Hg10 mi
10:55 AM69 °FLow clouds.3 mph99%29.99 "Hg10 mi
10:15 AM69 °FLow clouds.3 mph98%29.98 "Hg10 mi
9:55 AM68 °FLow clouds.No wind98%29.97 "Hg10 mi
9:35 AM68 °FLow clouds.3 mph100%29.97 "Hg10 mi
9:15 AM67 °FLow clouds.6 mph100%29.96 "Hg10 mi
8:55 AM66 °FFog.5 mph100%29.96 "Hg5 mi
8:35 AM66 °FFog.5 mph100%29.96 "Hg4 mi
8:15 AM66 °FFog.3 mph100%29.96 "Hg3 mi
7:55 AM65 °FFog.3 mph100%29.95 "Hg4 mi
7:15 AM65 °FFog.5 mph100%29.94 "Hg2 mi
6:55 AM66 °FFog.No wind100%29.94 "Hg1 mi
6:35 AM66 °FFog.3 mph100%29.94 "Hg1 mi
6:15 AM66 °FFog.No wind100%29.94 "Hg3 mi
5:55 AM66 °FFog.3 mph100%29.93 "Hg1 mi
5:35 AM67 °FFog.8 mph100%29.94 "Hg1 mi
5:15 AM67 °FFog.7 mph100%29.93 "Hg2 mi
4:55 AM68 °FFog.6 mph100%29.93 "Hg1 mi
4:35 AM68 °FFog.No wind100%29.91 "Hg2 mi
4:15 AM68 °FFog.6 mph100%29.90 "Hg2 mi
3:55 AM69 °FFog.7 mph100%29.89 "Hg1 mi
3:35 AM71 °FFog.7 mph100%29.88 "Hg1 mi
3:15 AM71 °FFog.5 mph100%29.88 "Hg3 mi
2:55 AM71 °FLow clouds.No wind100%29.87 "Hg7 mi
2:35 AM71 °FLow clouds.No wind100%29.87 "Hg7 mi
2:15 AM71 °FLow clouds.No wind100%29.87 "Hg7 mi
1:55 AM71 °FLow clouds.No wind100%29.87 "Hg7 mi
1:35 AM71 °FLow clouds.3 mph100%29.87 "Hg7 mi
1:15 AM70 °FFog.3 mph100%29.87 "Hg5 mi
12:55 AM69 °FFog.No wind100%29.88 "Hg1 mi
12:35 AM70 °FFog.No wind100%29.88 "Hg1 mi
12:15 AM71 °FPartly cloudy.No wind100%29.88 "Hg7 mi
11:55 PM
Aug 21
71 °FPartly cloudy.No wind100%29.88 "Hg7 mi
11:35 PM72 °FOvercast.No wind100%29.87 "Hg10 mi
11:15 PM72 °FOvercast.No wind100%29.87 "Hg10 mi
10:55 PM73 °FOvercast.No wind100%29.87 "Hg10 mi
10:35 PM73 °FOvercast.No wind100%29.86 "Hg10 mi
10:15 PM73 °FMostly cloudy.No wind100%29.86 "Hg10 mi
9:55 PM73 °FOvercast.5 mph100%29.86 "Hg10 mi
9:15 PM72 °FPartly cloudy.5 mph100%29.87 "Hg10 mi
8:55 PM72 °FPartly sunny.5 mph100%29.87 "Hg10 mi
8:35 PM72 °FScattered clouds.3 mph100%29.86 "Hg10 mi
8:15 PM73 °FScattered clouds.8 mph100%29.85 "Hg10 mi
7:55 PM73 °FScattered clouds.6 mph100%29.85 "Hg10 mi
7:35 PM74 °FBroken clouds.6 mph98%29.85 "Hg10 mi
7:15 PM74 °FMostly cloudy.5 mph97%29.85 "Hg10 mi
6:55 PM74 °FBroken clouds.8 mph96%29.84 "Hg10 mi
6:15 PM75 °FMore clouds than sun.5 mph94%29.85 "Hg10 mi
5:55 PM74 °FMostly cloudy.9 mph95%29.85 "Hg10 mi
5:35 PM75 °FLight rain. Mostly cloudy.6 mph94%29.85 "Hg10 mi
5:15 PM75 °FCloudy.9 mph93%29.85 "Hg10 mi
4:55 PM74 °FMostly cloudy.5 mph93%29.85 "Hg10 mi
4:35 PM74 °FOvercast.5 mph93%29.85 "Hg10 mi
4:15 PM74 °FOvercast.8 mph93%29.84 "Hg10 mi
3:55 PM74 °FOvercast.8 mph93%29.84 "Hg10 mi
3:35 PM74 °FOvercast.8 mph93%29.83 "Hg10 mi
3:15 PM74 °FOvercast.9 mph93%29.83 "Hg10 mi
2:55 PM74 °FOvercast.12 mph93%29.84 "Hg10 mi
2:35 PM74 °FOvercast.13 mph93%29.83 "Hg10 mi
2:15 PM73 °FOvercast.9 mph93%29.83 "Hg10 mi
1:55 PM73 °FOvercast.10 mph93%29.84 "Hg10 mi
1:35 PM73 °FMore clouds than sun.9 mph94%29.83 "Hg10 mi
1:15 PM73 °FMostly cloudy.8 mph94%29.83 "Hg10 mi
12:55 PM73 °FMostly cloudy.8 mph94%29.83 "Hg10 mi
12:35 PM73 °FMostly cloudy.9 mph94%29.83 "Hg10 mi
12:15 PM73 °FMore clouds than sun.10 mph93%29.83 "Hg10 mi
Weather by CustomWeather, © 2014

See weather overviewHow to use our weather pages